Regional Weather Roundup
Issued by NWS

Home | Current Version | Previous Version | Graphics & Text | Print | Product List | Glossary On
Versions: 1 2 3 4 5 6 7 8 9 10 11 12 13 14 15 16 17 18 19 20 21 22 23 24 25 26 27 28 29 30 31 32 33 34 35 36 37 38 39 40 41 42 43 44 45 46 47 48 49 50
000
ASUS43 KFSD 222302
RWRSD

WEATHER ROUNDUP FOR SOUTH DAKOTA
NATIONAL WEATHER SERVICE SIOUX FALLS SD
600 PM CDT MON MAY 22 2017

NOTE: "FAIR" INDICATES FEW OR NO CLOUDS BELOW 12,000 FEET WITH NO
SIGNIFICANT WEATHER AND/OR OBSTRUCTIONS TO VISIBILITY.


SDZ001>005-009-010-012>017-230000-
NORTHWEST AND NORTH CENTRAL SOUTH DAKOTA

CITY           SKY/WX    TMP DP  RH WIND       PRES   REMARKS
BUFFALO          N/A     53  43  68 N20G37    30.02R
FAITH            N/A     61  36  39 N25G32    30.01R
MOBRIDGE       CLOUDY    60  37  42 N23G29    29.95R
$$

SDZ012>016-024>037-041>051-057-063-072>074-230000-
SOUTHWEST AND SOUTH CENTRAL SOUTH DAKOTA

CITY           SKY/WX    TMP DP  RH WIND       PRES   REMARKS
RAPID CTY ARPT SUNNY     57  39  51 N23G35    30.07S
PIERRE         CLOUDY    61  37  41 NW12      29.95R
CUSTER         MOSUNNY   46  31  55 N14G25    30.10S
ELLSWORTH AFB  MOSUNNY   54  40  58 NW26G32   30.07R
PHILIP         LGT RAIN  56  43  61 N15G21    30.02R
PINE RIDGE     TSTM      47  44  90 N5        30.07R
SPEARFISH      FAIR      48  45  87 W15       30.13S
WINNER         FAIR      60  45  57 N15G26    29.98R
$$

SDZ004>011-016>023-039-040-230000-
NORTHEAST SOUTH DAKOTA

CITY           SKY/WX    TMP DP  RH WIND       PRES   REMARKS
ABERDEEN       CLOUDY    58  38  47 N16G25    29.91S
WATERTOWN      CLOUDY    57  39  51 N14       29.87R
BROOKINGS      LGT RAIN  50  46  86 NW7       29.89R
SISSETON         N/A     55  47  74 N10       29.88R
$$

SDZ017-020-022-023-036>040-048>070-230000-
SOUTHEAST SOUTH DAKOTA

CITY           SKY/WX    TMP DP  RH WIND       PRES   REMARKS
SIOUX FALLS    PTSUNNY   57  49  74 NW18G25   29.87R
HURON          CLOUDY    56  48  74 W8        29.91F
CHAMBERLAIN    MOSUNNY   61  42  49 NW14G23   29.95S
MITCHELL       CLOUDY    56  44  64 N13       29.93R
YANKTON          N/A     62  51  67 NW18G24   29.88R
$$

ABBREVIATIONS USED IN REMARKS
   TC - TEMPERATURE IN CELSIUS
  WCI - WIND CHILL INDEX
   HX - HEAT INDEX
  VSB - VISIBILITY





USA.gov is the U.S. government's official web portal to all federal, state and local government web resources and services.